Velovelo
Português Nederlands 日本語 中文
Español English čeština slovenčina
русский italiano polski norsk
français Deutsch svenska عربي
 
 vorige pagina
 Stuur naar een vriend
 Print dit artikel
 ---> La Moïse Puginier 2009 : Résultats du 100 km

Nous nous excusons de ce petit retard à la publication de ces résultats, il est dû à la préparation (déplacement pour visas) de notre reportage en Chine durant ce mois d’Octobre ...

ClassDos.... Nom Prénom ... Cat. Temps...
1 1 MARTINEZ,Miguel D 2:50:29
2 51 LAVIEU,Antoine D 2:52:13
3 151 LUGLIA,Daniel F 2:56:22
4 199 LANTERI,Alain F 2:56:43
5 157 RICHEDA,Christophe E 2:56:48
6 17 FOLCO,Maxime D 2:57:04
7 16 CHABAUD,Joan D 2:58:06
8 55 MINNITI,Lonni D 2:58:19
9 139 LENTIN,Gregory D 3:00:41
10 2 BOUSQUET,Mickael D 3:01:07
11 138 MERLE,Vincent D 3:01:31
12 22 PLUMER,JULIEN D 3:01:40
13 31 MICHEL,Pascal E 3:02:56
14 115 GERNEZ,Amaury D 3:02:59
15 117 ICARD,Michel F 3:41:00
16 5 VALENTIN,Jonathan D 3:41:00
17 188 VAZEILLE,ANTHONY D 3:41:00
18 32 GUIPPONI,Gérald E 3:04:04
19 91 BAIMA,Jérôme D 3:04:46
20 10 HUET,Jean-Yves F 3:04:52
21 107 ROBIN,Jackie G 3:04:55
22 100 THOMAS,Stéphane D 3:05:39
23 150 MERANDI,Bernard E 3:05:39
24 21 LANGASQUE,Didier E 3:06:13
25 56 BIANNE,Mathieu D 3:06:46
26 121 GRATIA,Alexandre D 3:07:03
27 4 RODRIGUEZ,JUAN E 3:09:07
28 158 VERSEPUY,David E 3:09:00
29 53 OUDET,Marcel G 3:09:13
30 29 ANTON,Uldéric D 3:09:13
31 164 GOMEZ,BRUNO E 3:09:18
32 143 BISCAREL,Laurent E 3:09:18
33 205 SOCQUET,Robert E 3:10:39
34 116 GHIBAUDO,Jean-Baptiste D 3:10:39
35 3 PAGE,Kieran D 3:10:42
36 128 BERTRANT,Florent E 3:10:51
37 8 SCAVINI,Jean-Christophe F 3:10:55
38 165 VIVES,Christophe E 3:10:56
39 118 PINATEL,Philippe E 3:11:04
40 114 SINTES,Damien D 3:11:18
41 89 DUPONT,Didier F 3:11:41
42 113 CASTELLAN,Bernard E 3:13:07
43 182 MELI,DOMINIQUE F 3:13:12
44 106 GRAZIANO,Bernard E 3:13:16
45 189 HABY,AUREL F 3:13:16
46 196 MINOT,Vincent D 3:13:02
47 111 MULTON,Frédéric F 3:13:02
48 119 GRONDIN,Joseph Aldéric F 3:13:32
49 34 MACCARI,Maurice F 3:13:40
50 19 TALON,Thomas D 3:15:10
51 168 SENECHAL,Eric E 3:15:32
52 77 MIGNONE,Jean-Louis F 3:15:52
53 25 SIANO,Daniel E 3:17:24
54 59 IMBERT,Patrick F 3:17:48
55 175 LEFAURE,Mikael E 3:17:48
56 187 BERTHON,Frederic E 3:17:48
57 201 GIORNANENGO,JACQUES E 3:17:48
58 12 RODRIGUEZ,Manolo E 3:17:48
59 93 DE POTTER,Laurent D 3:17:48
60 184 HERRERA,JEAN PHILLIPPE E 3:17:48
61 26 GARDIEN,Xavier E 3:18:20
62 186 MAUGNIE,André F 3:19:32
63 194 GARCIA,JEAN IVAN G 3:20:36
64 173 CABANTOUS,PASCAL-ARNAUD T 3:20:36
65 137 BAUER,Charley D 3:20:36
66 82 COCUSSE,Dominique E 3:20:36
67 133 COLLINS,Diarmuid D 3:20:36
68 14 CARLONI,François D 3:20:36
69 197 ROBINET,Christophe D 3:21:49
70 18 LANFRANCHISE,Didier G 3:22:34
71 200 TIZANEL,MATHIEU D 3:22:56
72 135 PULIDORI,Jerome D 3:22:56
73 149 JONLET,Michel F 3:23:01
74 104 ZANINI,Jean-Pierre G 3:23:36
75 20 BOUHET,Cyril E 3:23:51
76 185 SERENI,Christophe E 3:23:51
77 33 LLEWELLYN,Guy E 3:23:56
78 37 DENTELLE,Laurent D 3:23:59
79 171 ROUGEOT,JACQUES F 3:24:52
80 49 MIR,Patrick F 3:25:49
81 9 BOYER,Claude G 3:25:49
82 6 VALENTIN,Didier E 3:25:49
83 7 SCAVINI,Caroline C 3:26:05
84 54 ROSETTI,Bernard G 3:26:43
85 42 NIN,Thierry E 3:27:10
86 181 CIOT,Eric F 3:28:01
87 195 GENSAC,ERIC E 3:28:41
88 73 CANALES,Jean E 3:28:53
89 144 ARNEODO,Didier E 3:29:32
90 145 BENEDENTI,Serge F 3:29:32
91 142 POITEVIN,J Philippe E 3:29:47
92 160 IVALDI,CORRADO E 3:29:55
93 13 CHAILLAN,Denis E 3:29:58
94 45 LADAS,David E 3:31:47
95 50 BRASSELET,Marc G 3:31:57
96 198 GOUDEAU,CLAUDE D 3:32:51
97 80 PAGALI,Philip F 3:33:37
98 166 ESCAPEL,Eric F 3:33:37
99 132 SEGUIN,David D 3:34:16
100 141 NUBLAT,Yannick E 3:35:47
101 179 SAUSSE,Alain E 3:35:47
102 105 TCHILINGUIRIAN,Rémy E 3:35:49
103 40 DI GREGORIO,Charly G 3:36:18
104 183 CLOUP,Serge F 3:36:18
105 148 DEBENT,Jean Claude G 3:37:46
106 177 LEP,Christophe E 3:37:47
107 94 HERMAND,Pierre G 3:35:54
108 103 WILSON,Ian G 3:38:25
109 63 SIC,Guillaume D 3:39:21
110 109 PAYET,Frédéric E 3:39:30
111 61 STRAZZULA,Dominique F 3:39:47
112 129 DEUX,Guy G 3:40:19
113 39 BUTAUX,Patrick F 3:40:24
114 136 BOBILLE,Christophe E 3:40:26
115 120 DOLFI,Robert G 3:40:40
116 44 BASCHENIS,Marcel G 3:40:40
117 125 CLERC,Daniel G 3:40:46
118 140 DIEUDONNE,Nicolas D 3:40:56
119 159 ROSTAGNO,IJOR E 3:41:13
120 174 QUILGARS,Eric E 3:41:13
121 66 MAMOUNI,Fawzyx E 3:41:21
122 76 MICHELLAND,Eddy E 3:41:28
123 92 BELGRANO,Pierre G 3:41:33
124 124 MAHEROU,Frédéric F 3:42:03
125 41 RICHARD,Béatrice C 3:42:35
126 203 DOZE,GILLES E 3:47:50
127 161 DECAMPS,Frederic D 3:47:50
128 191 BONNIN,Nicolas D 3:47:50
129 60 DUFOUR,Patrick G 3:50:34
130 62 REBOUH,Alain F 3:50:35
131 79 CARA,Jean-Claude G 3:52:42
132 75 LE MOAL,David E 3:52:43
133 78 DRUMME,Marc D 3:55:35
134 204 BAUDIN,GILLES E 3:56:28
135 108 DUMOULIN,Alexandre D 3:56:28
136 152 GROSSI,Frederic E 3:56:39
137 163 FORZANI,Gilbert F 3:56:55
138 153 CAPPY,Jean Pierre F 3:57:57
139 58 LAGGER,Gérard G 3:58:10
140 83 AITTAMAR,Saïd F 3:58:16
141 170 VERARDI,GILLES F 3:58:19
142 28 CALZIA,Jean Claude G 3:58:37
143 167 BOUCHER,Alain G 3:58:42
144 176 JEANJEAN,GERARD F 3:58:49
145 57 AGUERA,Thierry F 4:00:22
146 127 SALINI,Fabrice E 4:00:23
147 134 SAVAGE,Damian D 4:00:56
148 49 MIR,Patrick F 4:03:18
149 172 MAGAL,JEAN MARIE F 4:03:18
150 98 PARIS,Jean-Philippe D 4:03:49
151 47 PUCHAULT,Ludovic E 4:03:51
152 64 SIC,Gilbert G 4:03:51
153 38 PRACH,Noël G 4:07:12
154 46 DEMANGE,Bernard G 4:10:23
155 67 MONNET,Jean-Michel F 4:10:23
156 86 HULSINK,Anton G 4:10:23
157 102 WILSON,Helen B 4:13:02
158 69 SALVADOR,Laurent E 4:14:18
159 99 SCANELLA,Norbert F 4:14:27
160 110 MAGGIO,David E 4:15:15
161 202 QUINANZONI,JOSIANE B 4:16:51
162 15 BRARD,Christian G 4:16:54
163 96 MARTINI,Lucas D 4:16:57
164 36 SAUVE,Hugues F 4:19:09
165 65 DIONISIO,Georges E 4:23:52
166 147 TACK,Olivier E 4:23:53
167 97 MONNIER,Jean-Luc G 4:29:26
168 71 BLASSEL,Michael E 4:29:39
169 156 PEETERS,Johan D 4:31:53
170 162 FORZANI,SYLVIE C 4 ;32:40
171 90 DE TOFFOLI,Nicolas D 4:37:26
172 70 ABO,Maurice F 4:37:30
173 96 MARTINI,Lucas D 4:43:13
174 81 PONCELET,Eric E 4:45:13
175 72 CAMATTE,Jean-Paul G 4:48:53
176 178 FERNANDEZ,MARC F 4:50:11
177 68 GOEPFERT,Alain G 4:51:18

Haut 









Haut  
 Privé-site   Auteursrecht-Copyright : klik hier om te lezen !